Tracking 18840 objects as of 18-November-2017
HD Live streaming from Space Station
objects crossing your sky now

SS 1

Track SS 1 now!
10-day predictions
SS 1 is classified as:


NORAD ID: 10529
Int'l Code: 1977-112D
Perigee: 365.9 km
Apogee: 1,576.7 km
Inclination: 63.3 °
Period: 104.4 minutes
Semi major axis: 7342 km
RCS: Unknown
Launch date: December 8, 1977
Source: United States (US)
Launch site: AIR FORCE WESTERN TEST RANGE (AFWTR)
aabbcc
Your satellite tracking list
Your tracking list is empty




NASA's NSSDC Master Catalog

Two Line Element Set (TLE):
1 10529U 77112D   17318.22245963 0.00001200  00000-0  65653-4 0    03
2 10529  63.2828  72.8736 0824551 113.5068 246.4932 13.79931799    08
Source of the keplerian elements: McCants